Погода в Уэст-Палм-Бич

США     26°42′21″N   80°03′02″W
темп.,
°C
ветер,
м/с
пор.,
м/с
влажн.,
%
обл.,
%
осадки,
мм/ч
давл.,
гПа
погр.,
м
15 мая, сб
сб1523:00+25св67709 0.0 10191024
02:00+25св667136 0.1 1018945
05:00+24ссв567120 0.1 1018871
08:00+25ссв676910 0.2 1020993
11:00+26ссв776642 0.1 10201235
14:00+26св886348 0.4 10201373
17:00+25ссв886124 0.5 10191371
20:00+25св89636 0.5 10191257
16 мая, вс
вс1623:00+24св786519 0.0 10201271
02:00+24св676799 0.1 1019846
05:00+24св6768100 0.4 1019936
08:00+24всв6767100 0.6 1020888
11:00+25всв7763100 0.2 10221234
14:00+25всв886540 0.4 10211288
17:00+24св886496 0.3 10201349
20:00+24св776352 0.4 10211227
17 мая, пн
пн1723:00+24всв676299 0.0 10201348
02:00+24всв5659100 0.0 10191399
05:00+23всв5558100 0.0 10191374
08:00+24всв5555100 0.0 10201537
11:00+25в565199 0.0 10201596
14:00+26всв6752100 0.0 10201506
17:00+26в675473 0.0 10181544
20:00+25всв786131 0.1 10191368
18 мая, вт
вт1823:00+25всв785681 0.0 10201521
02:00+25в675895 0.0 10191189
05:00+24в6758100 0.0 10181125
08:00+25в7963100 0.1 10191312
11:00+26в7857100 0.0 10201541
14:00+27в7957100 0.0 10191380
17:00+26всв8867100 0.3 10181188
20:00+25всв9107345 1.0 10191070
19 мая, ср
ср1923:00+25всв9117397 1.2 10201136
02:00+25всв91064100 1.6 10191355
05:00+25всв8959100 0.0 10181514
08:00+25всв895760 0.0 10201524
11:00+26всв885510 0.0 10201571
14:00+27всв8857100 0.0 10201517
17:00+26всв896581 0.2 10191235
20:00+25всв10106476 0.3 10201152